COSMOS 252 DEB, 18490

Orbit data source: Space-Track

COSMOS 252 DEB, 18490 is space debris in LEO originally from a launch on Fri, 01 Nov 1968 UTC launched from the Tyuratam Missile And Space Complex (TTMTR). Debris objects in space refer to the collection of defunct objects orbiting the Earth. Examples of debris include non-operational satellites, rocket bodies, and fragments generated from explosions, collisions, or faulty payload assembly.

Loading next visibility...
Identifier
18490, 1968-097EN
Orbit
LEO
Country
Flag of CISCIS
Related business
Manufacturer
Unknown
Mission
Spacecraft
Bus & Motor
Unknown
Mass
Unknown
Launch date (UTC)
1968-11-01 (58 years ago)
Launch vehicle
Unknown
Launch site
Tyuratam Missile And Space Complex (TTMTR)
Object type
Payload
Rocket body
Debris
Shape & HBR
Unknown shape, 0.1 m
Radar Cross Section
Medium (>0.1 m² and <1 m²)

Expand to show TLE details & history
Last TLE update: 20 hours ago

TLE from 20 hours ago
0 COSMOS 252 DEB
1 18490U 68097EN  26236.60544943  .00002361  00000-0  37564-3 0  9996
2 18490  62.7380 312.8018 0423943   0.9411 359.2352 14.28774680722190
Epoch: 2026-08-24T14:31Z
TLE epoch observation values (Epoch: 2026-08-24T14:31:50.830Z)
Latitude
-0.00008°
Longitude
121.95522°
Altitude
493.481 km
Speed
7.778 km/s
True Right ascension
20h 51m 12s
True Declination
0° 00' 00"
Sunlit
Object was in full shadow at epoch
Visualization orbit readout
Latitude
Unknown
Longitude
Unknown
Altitude
Unknown
Speed
Unknown
Apparent Right ascension
Unknown
Apparent Declination
Unknown
Sunlit
N/A
Visualization observer readout
Local Sidereal Time
01:57:10
Azimuth
Unknown
Elevation
Unknown
Doppler factor
Unknown
Orbital elements
Apogee altitude
1,098.781 km
Perigee altitude
490.606 km
Semi-major axis
7,172.831 km
Eccentricity
0.04239
Inclination
62.738°
RAAN
312.8018°
Arg. of periapsis
0.9411°
True anomaly
359.16674°
Mean anomaly
359.2352°
Eccentric anomaly
359.20134°
Mean motion
3.57279 °/min
Orbital period
100.76 mins
BSTAR
0.00037564
Loading maneuver chart data...
Computing Atmospheric mass density...
Loading historical data...
Loading historical data...
Loading historical data...
Loading historical data...
Loading historical data...
Loading historical data...
Loading historical data...

Documentation

Showing up to 5 results
|